Terminal Aerodrome Forecast
Issued by NWS

Home | Current Version | Previous Version | Text Only | Print | Product List | Glossary On
Versions: 1 2 3 4 5 6 7 8 9 10 11 12 13 14 15 16 17 18 19 20 21
000
FTUS42 TJSJ 271740
TAFIST
TAF
TIST 271740Z 2718/2818 13011KT P6SM VCSH FEW028 SCT035
     FM272300 08008KT P6SM FEW025
     FM280800 09009KT P6SM SCT026
     FM281400 12012KT P6SM SCT030=

USA.gov is the U.S. government's official web portal to all federal, state and local government web resources and services.